Weather History for KLXL - January, 2013

Change the Weather History Date:

Wednesday, January 23, 2013

  Actual Average Record
Temperature  
Mean Temperature 0 °F -  
Max Temperature 10 °F 22 °F 59 °F (1942)
Min Temperature -9 °F 1 °F -40 °F (1935)
Degree Days  
Heating Degree Days 64    
Moisture  
Dew Point -8 °F    
Average Humidity 63    
Maximum Humidity 85    
Minimum Humidity 43    
Precipitation  
Precipitation 0.00 in - - ()
Sea Level Pressure  
Sea Level Pressure 30.28 in    
Wind  
Wind Speed 4 mph (NW)    
Max Wind Speed 17 mph    
Max Gust Speed 29 mph    
Visibility 9 miles    
Events Snow    
Averages and records for this station are not official NWS values.
T = Trace of Precipitation, MM = Missing Value Source: NWS Daily Summary

Daily Weather History Graph

Daily Weather History Graph

Search for Another Location

Airport or City:

Trip Planner

Search our weather history database for the weather conditions in past years. The results will help you decide how hot, cold, wet, or windy it might be!

Date:

Astronomy

Jan. 23, 2013 Rise Set
Actual Time 7:48 AM CST 5:10 PM CST
Civil Twilight 7:16 AM CST 5:42 PM CST
Nautical Twilight 6:39 AM CST 6:19 PM CST
Astronomical Twilight 6:04 AM CST 6:54 PM CST
Moon 2:18 PM CST (1/23) 5:03 AM CST (1/23)
Length of Visible Light 10h 26m
Length of Day
9h 21m
Waxing Gibbous, 89% of the Moon is Illuminated
Jan 23
Waxing Gibbous
Jan 26
Full
Feb 3
Last Quarter
Feb 10
New
Feb 17
First Quarter

Hourly Weather History & Observations

Time (CST) Temp. Windchill Dew Point Humidity Pressure Visibility Wind Dir Wind Speed Gust Speed Precip Events Conditions
12:14 AM 3.2 °F - -5.8 °F 66% 30.18 in 10.0 mi Calm Calm - N/A   Scattered Clouds
12:33 AM 3.2 °F - -5.8 °F 66% 30.18 in 10.0 mi Calm Calm - N/A   Scattered Clouds
12:54 AM 3.2 °F - -4.0 °F 72% 30.17 in 10.0 mi Calm Calm - N/A   Mostly Cloudy
1:14 AM 3.2 °F - -4.0 °F 72% 30.17 in 10.0 mi Calm Calm - N/A   Overcast
1:34 AM 3.2 °F - -4.0 °F 72% 30.16 in 7.0 mi Calm Calm - N/A Snow Light Snow
1:54 AM 3.2 °F - -4.0 °F 72% 30.16 in 10.0 mi Calm Calm - N/A   Overcast
2:13 AM 3.2 °F - -4.0 °F 72% 30.15 in 7.0 mi Calm Calm - N/A Snow Light Snow
2:34 AM 3.2 °F -4.2 °F -2.2 °F 78% 30.15 in 10.0 mi South 3.5 mph - N/A Snow Light Snow
2:54 AM 3.2 °F -4.2 °F -2.2 °F 78% 30.14 in 10.0 mi South 3.5 mph - N/A Snow Light Snow
3:13 AM 3.2 °F -4.2 °F -2.2 °F 78% 30.14 in 10.0 mi South 3.5 mph - N/A   Overcast
3:34 AM 3.2 °F - -2.2 °F 78% 30.14 in 10.0 mi Calm Calm - N/A Snow Light Snow
3:53 AM 3.2 °F - -0.4 °F 85% 30.14 in 10.0 mi Calm Calm - N/A Snow Light Snow
4:14 AM 3.2 °F - -0.4 °F 85% 30.13 in 10.0 mi Calm Calm - N/A   Overcast
4:34 AM 3.2 °F - -0.4 °F 85% 30.12 in 10.0 mi Calm Calm - N/A   Overcast
4:54 AM 3.2 °F - -0.4 °F 85% 30.11 in 10.0 mi Calm Calm - N/A   Overcast
5:14 AM 3.2 °F - -0.4 °F 85% 30.11 in 10.0 mi Calm Calm - N/A Snow Light Snow
5:34 AM 3.2 °F - -0.4 °F 85% 30.12 in 10.0 mi Calm Calm - N/A   Overcast
5:54 AM 3.2 °F - -0.4 °F 85% 30.11 in 10.0 mi Calm Calm - N/A Snow Light Snow
6:14 AM 5.0 °F - -0.4 °F 78% 30.11 in 7.0 mi Calm Calm - N/A   Mostly Cloudy
6:34 AM 5.0 °F - -0.4 °F 78% 30.11 in 7.0 mi Calm Calm - N/A Snow Light Snow
6:54 AM 5.0 °F - -0.4 °F 78% 30.12 in 10.0 mi Calm Calm - N/A Snow Light Snow
7:14 AM 5.0 °F - 1.4 °F 85% 30.11 in 7.0 mi Calm Calm - N/A Snow Light Snow
7:33 AM 5.0 °F -2.1 °F 1.4 °F 85% 30.12 in 5.0 mi West 3.5 mph - N/A Snow Light Snow
7:54 AM 6.8 °F -2.0 °F 1.4 °F 79% 30.13 in 5.0 mi West 4.6 mph - N/A Snow Light Snow
8:14 AM 6.8 °F -3.5 °F 1.4 °F 79% 30.13 in 7.0 mi West 5.8 mph - N/A Snow Light Snow
8:33 AM 8.6 °F -1.3 °F 1.4 °F 73% 30.12 in 5.0 mi West 5.8 mph - N/A Snow Light Snow
8:54 AM 8.6 °F -2.6 °F 3.2 °F 79% 30.13 in 10.0 mi West 6.9 mph - N/A Snow Light Snow
9:14 AM 8.6 °F -4.7 °F 1.4 °F 73% 30.13 in 10.0 mi West 9.2 mph - N/A   Clear
9:34 AM 8.6 °F -6.3 °F 1.4 °F 73% 30.14 in 7.0 mi West 11.5 mph - N/A   Clear
9:54 AM 8.6 °F -7.7 °F 1.4 °F 73% 30.15 in 0.8 mi WNW 13.8 mph 19.6 mph N/A Snow Light Snow
10:14 AM 10.4 °F -6.0 °F 1.4 °F 67% 30.16 in 5.0 mi WNW 15.0 mph 19.6 mph N/A Snow Light Snow
10:34 AM 10.4 °F -5.4 °F 1.4 °F 67% 30.17 in 5.0 mi NW 13.8 mph 23.0 mph N/A Snow Light Snow
10:54 AM 8.6 °F -3.7 °F -0.4 °F 67% 30.19 in 10.0 mi NW 8.1 mph 19.6 mph N/A   Scattered Clouds
11:14 AM 8.6 °F -7.7 °F -0.4 °F 67% 30.20 in 10.0 mi NW 13.8 mph 19.6 mph N/A   Mostly Cloudy
11:34 AM 8.6 °F -8.3 °F -4.0 °F 57% 30.20 in 10.0 mi NW 15.0 mph 23.0 mph N/A   Scattered Clouds
11:54 AM 8.6 °F -7.7 °F -5.8 °F 52% 30.21 in 2.0 mi NW 13.8 mph 26.5 mph N/A Snow Light Snow
12:14 PM 8.6 °F -7.0 °F -5.8 °F 52% 30.21 in 10.0 mi NW 12.7 mph 19.6 mph N/A   Clear
12:34 PM 8.6 °F -7.0 °F -5.8 °F 52% 30.21 in 10.0 mi NW 12.7 mph 20.7 mph N/A   Scattered Clouds
12:54 PM 8.6 °F -7.7 °F -7.6 °F 48% 30.21 in 10.0 mi WNW 13.8 mph 23.0 mph N/A   Scattered Clouds
1:14 PM 6.8 °F -10.0 °F -7.6 °F 52% 30.23 in 10.0 mi NNW 13.8 mph 19.6 mph N/A   Scattered Clouds
1:34 PM 5.0 °F -12.3 °F -9.4 °F 52% 30.24 in 10.0 mi NW 13.8 mph 25.3 mph N/A   Scattered Clouds
1:54 PM 5.0 °F -10.8 °F -11.2 °F 47% 30.25 in 10.0 mi NW 11.5 mph 21.9 mph N/A   Clear
2:14 PM 3.2 °F -16.5 °F -13.0 °F 47% 30.27 in 7.0 mi WNW 17.3 mph 25.3 mph N/A   Clear
2:34 PM 3.2 °F -15.3 °F -13.0 °F 47% 30.29 in 10.0 mi NNW 15.0 mph 24.2 mph N/A   Clear
2:54 PM 3.2 °F -14.6 °F -13.0 °F 47% 30.31 in 10.0 mi NNW 13.8 mph 27.6 mph N/A   Clear
3:14 PM 3.2 °F -14.6 °F -14.8 °F 43% 30.32 in 10.0 mi NNW 13.8 mph 28.8 mph N/A   Clear
3:34 PM 3.2 °F -14.6 °F -14.8 °F 43% 30.33 in 10.0 mi NW 13.8 mph 20.7 mph N/A   Clear
3:54 PM 1.4 °F -13.5 °F -14.8 °F 47% 30.35 in 10.0 mi NW 9.2 mph 16.1 mph N/A   Clear
4:14 PM 1.4 °F -12.5 °F -16.6 °F 43% 30.36 in 10.0 mi NW 8.1 mph - N/A   Clear
4:34 PM 1.4 °F -12.5 °F -16.6 °F 43% 30.38 in 10.0 mi NW 8.1 mph 17.3 mph N/A   Clear
4:53 PM -0.4 °F -16.7 °F -16.6 °F 46% 30.40 in 10.0 mi NW 10.4 mph 16.1 mph N/A   Clear
5:14 PM -0.4 °F -13.4 °F -16.6 °F 46% 30.41 in 10.0 mi NW 6.9 mph - N/A   Clear
5:33 PM -0.4 °F -12.0 °F -16.6 °F 46% 30.43 in 10.0 mi NW 5.8 mph - N/A   Clear
5:54 PM -2.2 °F -14.2 °F -16.6 °F 50% 30.45 in 10.0 mi NW 5.8 mph - N/A   Clear
6:14 PM -2.2 °F -10.4 °F -16.6 °F 50% 30.46 in 10.0 mi NNW 3.5 mph - N/A   Clear
6:33 PM -2.2 °F -15.6 °F -16.6 °F 50% 30.47 in 10.0 mi NNW 6.9 mph - N/A   Clear
6:54 PM -4.0 °F - -16.6 °F 55% 30.48 in 10.0 mi Calm Calm - N/A   Clear
7:14 PM -4.0 °F -12.4 °F -18.4 °F 50% 30.49 in 10.0 mi NNW 3.5 mph - N/A   Clear
7:34 PM -4.0 °F -12.4 °F -18.4 °F 50% 30.50 in 10.0 mi North 3.5 mph - N/A   Clear
7:54 PM -5.8 °F -16.7 °F -18.4 °F 55% 30.51 in 10.0 mi North 4.6 mph - N/A   Clear
8:14 PM -5.8 °F - -18.4 °F 55% 30.52 in 10.0 mi Calm Calm - N/A   Clear
8:34 PM -5.8 °F - -16.6 °F 60% 30.54 in 10.0 mi Calm Calm - N/A   Clear
9:14 PM -7.6 °F -16.5 °F -18.4 °F 59% 30.53 in 10.0 mi North 3.5 mph - N/A   Clear
9:34 PM -7.6 °F - -18.4 °F 59% 30.55 in 10.0 mi Calm Calm - N/A   Clear
9:54 PM -7.6 °F -16.5 °F -18.4 °F 59% 30.55 in 10.0 mi North 3.5 mph - N/A   Clear
10:14 PM -7.6 °F - -20.2 °F 54% 30.57 in 10.0 mi Calm Calm - N/A   Clear
10:34 PM -7.6 °F - -22.0 °F 50% 30.58 in 10.0 mi Calm Calm - N/A   Clear
10:54 PM -9.4 °F - -22.0 °F 54% 30.59 in 10.0 mi Calm Calm - N/A   Clear
11:14 PM -9.4 °F - -22.0 °F 54% 30.60 in 10.0 mi Calm Calm - N/A   Clear
11:53 PM -9.4 °F - -22.0 °F 54% 30.60 in 10.0 mi Calm Calm - N/A   Clear